Weather History for St. James, MN

Change the Weather History Date:

Sunday, March 17, 2013

  Actual Average Record
Temperature  
Mean Temperature 24 °F -  
Max Temperature 35 °F 40 °F 75 °F (2012)
Min Temperature 12 °F 24 °F 0 °F (1993)
Degree Days  
Heating Degree Days 42    
Moisture  
Dew Point 13 °F    
Average Humidity 64    
Maximum Humidity 75    
Minimum Humidity 54    
Precipitation  
Precipitation 0.00 in - - ()
Sea Level Pressure  
Sea Level Pressure 30.05 in    
Wind  
Wind Speed 12 mph (ESE)    
Max Wind Speed 26 mph    
Max Gust Speed 33 mph    
Visibility 10 miles    
Events      
Averages and records for this station are not official NWS values.
T = Trace of Precipitation, MM = Missing Value Source: NWS Daily Summary

Daily Weather History Graph

Daily Weather History Graph

Search for Another Location

Airport:

Trip Planner

Search our weather history database for the weather conditions in past years. The results will help you decide how hot, cold, wet, or windy it might be!

Date:

Astronomy

Mar. 17, 2013 Rise Set
Actual Time 7:26 AM CDT 7:27 PM CDT
Civil Twilight 6:57 AM CDT 7:56 PM CDT
Nautical Twilight 6:24 AM CDT 8:29 PM CDT
Astronomical Twilight 5:49 AM CDT 9:04 PM CDT
Moon 10:28 AM CDT (3/17) 12:46 AM CDT (3/17)
Length of Visible Light 12h 58m
Length of Day
12h 00m
Waxing Crescent, 31% of the Moon is Illuminated
Mar 17
Waxing Crescent
Mar 19
First Quarter
Mar 27
Full
Apr 2
Last Quarter
Apr 10
New

Hourly Weather History & Observations

Time (CDT) Temp. Windchill Dew Point Humidity Pressure Visibility Wind Dir Wind Speed Gust Speed Precip Events Conditions
12:15 AM 15.8 °F 2.1 °F 6.8 °F 68% 30.26 in 10.0 mi NW 12.7 mph - N/A   Clear
12:35 AM 15.8 °F 2.7 °F 6.8 °F 68% 30.26 in 10.0 mi NNW 11.5 mph - N/A   Clear
12:55 AM 15.8 °F 3.4 °F 6.8 °F 68% 30.26 in 10.0 mi NW 10.4 mph - N/A   Clear
1:15 AM 14.0 °F 1.2 °F 5.0 °F 67% 30.26 in 10.0 mi NNW 10.4 mph - N/A   Clear
1:35 AM 14.0 °F 2.0 °F 5.0 °F 67% 30.26 in 10.0 mi NW 9.2 mph - N/A   Clear
1:54 AM 14.0 °F 2.0 °F 3.2 °F 62% 30.25 in 10.0 mi NW 9.2 mph - N/A   Clear
2:15 AM 14.0 °F 6.5 °F 5.0 °F 67% 30.25 in 10.0 mi NNW 4.6 mph - N/A   Clear
2:35 AM 14.0 °F 1.2 °F 5.0 °F 67% 30.25 in 10.0 mi NNW 10.4 mph - N/A   Clear
2:54 AM 14.0 °F 1.2 °F 3.2 °F 62% 30.24 in 10.0 mi NNW 10.4 mph - N/A   Clear
3:15 AM 12.2 °F -0.2 °F 3.2 °F 67% 30.23 in 10.0 mi North 9.2 mph - N/A   Clear
3:35 AM 12.2 °F 0.7 °F 3.2 °F 67% 30.22 in 10.0 mi North 8.1 mph - N/A   Clear
3:54 AM 12.2 °F -0.2 °F 3.2 °F 67% 30.21 in 10.0 mi North 9.2 mph - N/A   Clear
4:15 AM 12.2 °F - 3.2 °F 67% 30.20 in 10.0 mi Calm Calm - N/A   Clear
4:35 AM 12.2 °F -0.2 °F 1.4 °F 62% 30.20 in 10.0 mi NNE 9.2 mph - N/A   Clear
4:54 AM 12.2 °F - 3.2 °F 67% 30.20 in 10.0 mi Calm Calm - N/A   Clear
5:15 AM 12.2 °F - 3.2 °F 67% 30.19 in 10.0 mi Calm Calm - N/A   Clear
5:34 AM 12.2 °F - 3.2 °F 67% 30.20 in 10.0 mi Calm Calm - N/A   Clear
5:55 AM 12.2 °F 6.1 °F 3.2 °F 67% 30.19 in 10.0 mi NNE 3.5 mph - N/A   Clear
6:15 AM 12.2 °F - 3.2 °F 67% 30.19 in 10.0 mi Calm Calm - N/A   Clear
6:35 AM 12.2 °F - 3.2 °F 67% 30.18 in 10.0 mi Calm Calm - N/A   Clear
6:55 AM 12.2 °F - 3.2 °F 67% 30.18 in 10.0 mi Calm Calm - N/A   Clear
7:14 AM 12.2 °F - 3.2 °F 67% 30.19 in 10.0 mi Calm Calm - N/A   Clear
7:35 AM 14.0 °F 2.0 °F 5.0 °F 67% 30.17 in 10.0 mi ENE 9.2 mph - N/A   Clear
7:55 AM 14.0 °F 1.2 °F 5.0 °F 67% 30.17 in 10.0 mi ENE 10.4 mph - N/A   Clear
8:15 AM 15.8 °F 3.4 °F 3.2 °F 58% 30.17 in 10.0 mi East 10.4 mph - N/A   Mostly Cloudy
8:35 AM 15.8 °F 2.7 °F 5.0 °F 62% 30.17 in 10.0 mi East 11.5 mph - N/A   Overcast
8:55 AM 17.6 °F 4.3 °F 5.0 °F 58% 30.17 in 10.0 mi ESE 12.7 mph - N/A   Overcast
9:15 AM 17.6 °F 3.2 °F 6.8 °F 63% 30.16 in 10.0 mi East 15.0 mph - N/A   Mostly Cloudy
9:35 AM 19.4 °F 5.0 °F 6.8 °F 58% 30.16 in 10.0 mi ESE 16.1 mph - N/A   Mostly Cloudy
9:55 AM 19.4 °F 4.5 °F 6.8 °F 58% 30.15 in 10.0 mi ESE 17.3 mph - N/A   Scattered Clouds
10:15 AM 21.2 °F 7.3 °F 8.6 °F 58% 30.15 in 10.0 mi ESE 16.1 mph - N/A   Mostly Cloudy
10:35 AM 23.0 °F 9.2 °F 10.4 °F 59% 30.14 in 10.0 mi ESE 17.3 mph - N/A   Mostly Cloudy
10:54 AM 23.0 °F 8.7 °F 8.6 °F 54% 30.13 in 10.0 mi ESE 18.4 mph - N/A   Mostly Cloudy
11:15 AM 24.8 °F 11.9 °F 10.4 °F 54% 30.12 in 10.0 mi ESE 16.1 mph - N/A   Scattered Clouds
11:35 AM 26.6 °F 14.7 °F 12.2 °F 55% 30.12 in 10.0 mi SE 15.0 mph - N/A   Mostly Cloudy
11:54 AM 26.6 °F 14.3 °F 12.2 °F 55% 30.11 in 10.0 mi ESE 16.1 mph 23.0 mph N/A   Overcast
12:15 PM 26.6 °F 14.3 °F 12.2 °F 55% 30.10 in 10.0 mi SE 16.1 mph 21.9 mph N/A   Scattered Clouds
12:34 PM 28.4 °F 16.2 °F 14.0 °F 55% 30.08 in 10.0 mi ESE 17.3 mph - N/A   Scattered Clouds
12:55 PM 28.4 °F 17.5 °F 15.8 °F 59% 30.07 in 10.0 mi ESE 13.8 mph 19.6 mph N/A   Scattered Clouds
1:15 PM 28.4 °F 18.0 °F 15.8 °F 59% 30.05 in 10.0 mi ESE 12.7 mph 21.9 mph N/A   Clear
1:34 PM 30.2 °F 18.9 °F 15.8 °F 55% 30.03 in 10.0 mi ESE 16.1 mph 20.7 mph N/A   Clear
1:55 PM 30.2 °F 18.9 °F 17.6 °F 60% 30.01 in 10.0 mi ESE 16.1 mph 20.7 mph N/A   Scattered Clouds
2:15 PM 30.2 °F 19.8 °F 17.6 °F 60% 29.99 in 10.0 mi ESE 13.8 mph 19.6 mph N/A   Scattered Clouds
2:35 PM 32.0 °F 22.1 °F 19.4 °F 60% 29.99 in 10.0 mi ESE 13.8 mph - N/A   Scattered Clouds
2:55 PM 32.0 °F 21.2 °F 19.4 °F 60% 29.98 in 10.0 mi ESE 16.1 mph 19.6 mph N/A   Clear
3:14 PM 32.0 °F 21.2 °F 19.4 °F 60% 29.98 in 10.0 mi SE 16.1 mph 21.9 mph N/A   Scattered Clouds
3:35 PM 32.0 °F 20.8 °F 19.4 °F 60% 29.97 in 10.0 mi SE 17.3 mph 23.0 mph N/A   Scattered Clouds
3:55 PM 33.8 °F 23.2 °F 21.2 °F 60% 29.96 in 10.0 mi SE 17.3 mph - N/A   Mostly Cloudy
4:15 PM 33.8 °F 23.2 °F 19.4 °F 56% 29.95 in 10.0 mi SE 17.3 mph 21.9 mph N/A   Mostly Cloudy
4:34 PM 33.8 °F 23.2 °F 21.2 °F 60% 29.94 in 10.0 mi ESE 17.3 mph 21.9 mph N/A   Mostly Cloudy
4:55 PM 32.0 °F 21.2 °F 21.2 °F 64% 29.92 in 10.0 mi ESE 16.1 mph 23.0 mph N/A   Mostly Cloudy
5:15 PM 33.8 °F 23.2 °F 21.2 °F 60% 29.91 in 10.0 mi ESE 17.3 mph - N/A   Mostly Cloudy
5:34 PM 33.8 °F 22.5 °F 21.2 °F 60% 29.91 in 10.0 mi ESE 19.6 mph 25.3 mph N/A   Mostly Cloudy
5:54 PM 33.8 °F 21.9 °F 21.2 °F 60% 29.88 in 10.0 mi ESE 21.9 mph 25.3 mph N/A   Overcast
6:15 PM 33.8 °F 22.5 °F 21.2 °F 60% 29.88 in 10.0 mi ESE 19.6 mph - N/A   Overcast
6:35 PM 33.8 °F 22.5 °F 23.0 °F 65% 29.87 in 10.0 mi ESE 19.6 mph 23.0 mph N/A   Overcast
6:55 PM 33.8 °F 21.0 °F 21.2 °F 60% 29.86 in 10.0 mi SE 25.3 mph 29.9 mph N/A   Overcast
7:14 PM 33.8 °F 21.0 °F 21.2 °F 60% 29.85 in 10.0 mi ESE 25.3 mph 32.2 mph N/A   Overcast
7:35 PM 33.8 °F 20.8 °F 23.0 °F 65% 29.84 in 10.0 mi ESE 26.5 mph 33.4 mph N/A   Overcast
7:55 PM 33.8 °F 24.3 °F 24.8 °F 70% 29.86 in 10.0 mi ESE 13.8 mph 26.5 mph N/A   Overcast
8:15 PM 33.8 °F 24.8 °F 24.8 °F 70% 29.86 in 10.0 mi ESE 12.7 mph - N/A   Overcast
8:34 PM 33.8 °F 24.8 °F 24.8 °F 70% 29.86 in 10.0 mi SE 12.7 mph 20.7 mph N/A   Overcast
8:54 PM 33.8 °F 24.8 °F 24.8 °F 70% 29.86 in 10.0 mi ESE 12.7 mph - N/A   Overcast
9:15 PM 33.8 °F 25.8 °F 24.8 °F 70% 29.85 in 10.0 mi ESE 10.4 mph 18.4 mph N/A   Overcast
9:35 PM 33.8 °F 23.9 °F 24.8 °F 70% 29.85 in 10.0 mi SE 15.0 mph 23.0 mph N/A   Overcast
9:55 PM 33.8 °F 22.5 °F 24.8 °F 70% 29.82 in 10.0 mi SE 19.6 mph 24.2 mph N/A   Overcast
10:15 PM 35.6 °F 25.9 °F 24.8 °F 65% 29.83 in 10.0 mi SE 16.1 mph 24.2 mph N/A   Overcast
10:35 PM 33.8 °F 22.8 °F 24.8 °F 70% 29.84 in 10.0 mi SE 18.4 mph 25.3 mph N/A   Overcast
10:55 PM 33.8 °F 22.8 °F 24.8 °F 70% 29.82 in 10.0 mi SE 18.4 mph 24.2 mph N/A   Overcast
11:15 PM 33.8 °F 21.3 °F 24.8 °F 70% 29.81 in 10.0 mi SE 24.2 mph 28.8 mph N/A   Overcast
11:35 PM 33.8 °F 21.9 °F 26.6 °F 75% 29.79 in 10.0 mi SE 21.9 mph 29.9 mph N/A   Overcast
11:55 PM 33.8 °F 21.9 °F 26.6 °F 75% 29.78 in 10.0 mi SE 21.9 mph 32.2 mph N/A   Overcast